User: anonymous   Login
Location: Lawrence Hall of Science
(37.8785°N, 122.2415°W)
Time: 08:11:55
(UTC-08:00)
Language:

Cosmos 1461 - Orbit

View from above orbital plane
View from above orbital plane
View from above satellite
View from above satellite

Ground track
Ground track

The orbit data is extracted from the following two-line orbital elements,

1 14064U 83044A   14328.08966030  .00006822  00000-0  66644-3 0  6932
2 14064 065.0054 295.4566 0096244 048.8695 312.0675 14.89672828583666
Epoch (UTC): 24 November 2014 02:09:06
Eccentricity: 0.0096244
inclination: 65.0054°
perigee height: 532 km
apogee height: 666 km
right ascension of ascending node: 295.4566°
argument of perigee: 48.8695°
revolutions per day: 14.89672828
mean anomaly at epoch: 312.0675°
orbit number at epoch: 58366

The dashed part of the orbit path shows where the satellite is in the earth's shadow,  

DLR